| time (UTC) | temp F | wind direction | speed MPH | gust MPH | rain 1hr in | rain 24hr in | rain mn in | humidity % | barometer mb |
| 20260505011053 | 64 | 0 | 0.0 | 0.0 | 0.00 | 0.01 | 0.01 | 55 | 1011.4 |
| 20260505010552 | 64 | 0 | 0.0 | 0.0 | 0.00 | 0.01 | 0.01 | 54 | 1011.3 |
| 20260505010056 | 65 | 0 | 0.0 | 0.0 | 0.00 | 0.01 | 0.01 | 54 | 1011.2 |
| 20260505005551 | 65 | 0 | 0.0 | 0.0 | 0.00 | 0.01 | 0.01 | 53 | 1011.2 |
| 20260505005052 | 65 | 0 | 0.0 | 0.0 | 0.00 | 0.01 | 0.01 | 53 | 1011.2 |
| 20260505004552 | 65 | 0 | 0.0 | 0.0 | 0.00 | 0.01 | 0.01 | 52 | 1011.1 |
| 20260505004051 | 65 | 0 | 0.0 | 0.0 | 0.00 | 0.01 | 0.01 | 52 | 1011.1 |
| 20260505003551 | 65 | 0 | 0.0 | 0.0 | 0.00 | 0.01 | 0.01 | 52 | 1011.2 |
| 20260505003057 | 66 | 0 | 0.0 | 0.0 | 0.00 | 0.01 | 0.01 | 52 | 1011.2 |
| 20260505002555 | 66 | 0 | 0.0 | 0.0 | 0.00 | 0.01 | 0.01 | 50 | 1011.2 |
| 20260505002056 | 66 | 0 | 0.0 | 0.0 | 0.00 | 0.01 | 0.01 | 51 | 1011.3 |
| 20260505001556 | 66 | 0 | 0.0 | 0.0 | 0.00 | 0.01 | 0.01 | 51 | 1011.2 |
| 20260505001051 | 66 | 0 | 0.0 | 0.0 | 0.00 | 0.01 | 0.01 | 51 | 1011.3 |
| 20260505000551 | 67 | 0 | 0.0 | 0.0 | 0.00 | 0.01 | 0.01 | 50 | 1011.2 |
| 20260505000107 | 67 | 0 | 0.0 | 0.0 | 0.00 | 0.01 | 0.01 | 49 | 1011.2 |
| 20260504235554 | 67 | 0 | 0.0 | 0.0 | 0.00 | 0.01 | 0.01 | 49 | 1011.1 |
| 20260504235052 | 68 | 0 | 0.0 | 0.0 | 0.00 | 0.01 | 0.01 | 47 | 1011.1 |
| 20260504234619 | 68 | 0 | 0.0 | 0.0 | 0.00 | 0.01 | 0.01 | 47 | 1011.0 |
| 20260504234053 | 69 | 0 | 0.0 | 0.0 | 0.00 | 0.01 | 0.01 | 47 | 1011.0 |
| 20260504233553 | 69 | 0 | 0.0 | 0.0 | 0.00 | 0.01 | 0.01 | 45 | 1010.9 |
| 20260504233054 | 69 | 0 | 0.0 | 2.0 | 0.00 | 0.01 | 0.01 | 45 | 1010.9 |
| 20260504232552 | 70 | 165 | 0.0 | 2.0 | 0.00 | 0.01 | 0.01 | 45 | 1010.9 |
| 20260504232051 | 70 | 148 | 1.0 | 2.0 | 0.00 | 0.01 | 0.01 | 45 | 1010.9 |
| 20260504231602 | 70 | 186 | 0.0 | 3.0 | 0.00 | 0.01 | 0.01 | 43 | 1010.9 |
| 20260504231051 | 70 | 186 | 1.0 | 3.0 | 0.00 | 0.01 | 0.01 | 43 | 1010.9 |
| 20260504230553 | 71 | 158 | 0.0 | 2.0 | 0.00 | 0.01 | 0.01 | 44 | 1010.8 |
| 20260504230058 | 71 | 164 | 0.0 | 2.0 | 0.00 | 0.01 | 0.01 | 43 | 1010.9 |
| 20260504225552 | 71 | 134 | 0.0 | 3.0 | 0.00 | 0.01 | 0.01 | 44 | 1010.8 |
| 20260504225051 | 71 | 149 | 1.0 | 3.0 | 0.00 | 0.01 | 0.01 | 44 | 1010.9 |
| 20260504224555 | 72 | 81 | 0.0 | 3.0 | 0.00 | 0.01 | 0.01 | 42 | 1010.9 |
| 20260504224053 | 72 | 165 | 1.0 | 3.0 | 0.00 | 0.01 | 0.01 | 42 | 1010.9 |
| 20260504223552 | 72 | 198 | 0.0 | 2.0 | 0.00 | 0.01 | 0.01 | 42 | 1010.8 |
| 20260504223054 | 72 | 172 | 0.0 | 3.0 | 0.00 | 0.01 | 0.01 | 42 | 1010.9 |
| 20260504222551 | 73 | 156 | 0.0 | 3.0 | 0.00 | 0.01 | 0.01 | 42 | 1010.7 |
| 20260504222052 | 73 | 184 | 0.0 | 3.0 | 0.00 | 0.01 | 0.01 | 42 | 1010.9 |
| 20260504221559 | 73 | 266 | 0.0 | 4.0 | 0.00 | 0.01 | 0.01 | 43 | 1010.9 |
| 20260504221053 | 73 | 244 | 1.0 | 4.0 | 0.00 | 0.01 | 0.01 | 41 | 1011.0 |
| 20260504220551 | 73 | 264 | 1.0 | 4.0 | 0.00 | 0.01 | 0.01 | 42 | 1010.8 |
| 20260504220058 | 73 | 160 | 0.0 | 3.0 | 0.00 | 0.01 | 0.01 | 41 | 1010.8 |
| 20260504215552 | 73 | 160 | 0.0 | 4.0 | 0.00 | 0.01 | 0.01 | 41 | 1010.8 |
| 20260504215051 | 73 | 145 | 1.0 | 4.0 | 0.00 | 0.01 | 0.01 | 40 | 1010.8 |
| 20260504214555 | 73 | 349 | 1.0 | 3.0 | 0.00 | 0.01 | 0.01 | 42 | 1010.9 |
| 20260504214052 | 73 | 338 | 1.0 | 3.0 | 0.00 | 0.01 | 0.01 | 42 | 1010.8 |
| 20260504213552 | 73 | 318 | 1.0 | 3.0 | 0.00 | 0.01 | 0.01 | 41 | 1010.8 |
| 20260504213059 | 74 | 323 | 1.0 | 3.0 | 0.00 | 0.01 | 0.01 | 42 | 1010.8 |
| 20260504212552 | 74 | 302 | 1.0 | 4.0 | 0.00 | 0.01 | 0.01 | 40 | 1010.8 |
| 20260504212052 | 73 | 311 | 1.0 | 4.0 | 0.00 | 0.01 | 0.01 | 40 | 1010.8 |
| 20260504211558 | 73 | 310 | 2.0 | 4.0 | 0.00 | 0.01 | 0.01 | 39 | 1010.8 |
| 20260504211054 | 73 | 297 | 1.0 | 5.0 | 0.00 | 0.01 | 0.01 | 40 | 1010.8 |
| 20260504210553 | 73 | 236 | 2.0 | 7.0 | 0.00 | 0.01 | 0.01 | 40 | 1010.8 |
| 20260504210110 | 73 | 323 | 2.0 | 7.0 | 0.00 | 0.01 | 0.01 | 37 | 1010.8 |
| 20260504205553 | 73 | 320 | 2.0 | 8.0 | 0.00 | 0.01 | 0.01 | 39 | 1010.9 |
| 20260504205052 | 73 | 319 | 2.0 | 8.0 | 0.00 | 0.01 | 0.01 | 39 | 1010.9 |
| 20260504204603 | 73 | 316 | 1.0 | 5.0 | 0.00 | 0.01 | 0.01 | 38 | 1011.1 |
| 20260504204054 | 73 | 319 | 2.0 | 5.0 | 0.00 | 0.01 | 0.01 | 37 | 1011.1 |
| 20260504203554 | 73 | 326 | 1.0 | 6.0 | 0.00 | 0.01 | 0.01 | 42 | 1011.1 |
| 20260504203058 | 73 | 314 | 3.0 | 7.0 | 0.00 | 0.01 | 0.01 | 40 | 1011.1 |
| 20260504202552 | 73 | 259 | 2.0 | 7.0 | 0.00 | 0.01 | 0.01 | 39 | 1011.3 |
| 20260504202057 | 73 | 300 | 3.0 | 7.0 | 0.00 | 0.01 | 0.01 | 38 | 1011.4 |
| 20260504201611 | 73 | 329 | 3.0 | 5.0 | 0.00 | 0.01 | 0.01 | 40 | 1011.4 |
| 20260504201051 | 73 | 318 | 1.0 | 5.0 | 0.00 | 0.01 | 0.01 | 39 | 1011.4 |
| 20260504200551 | 73 | 311 | 2.0 | 5.0 | 0.00 | 0.01 | 0.01 | 39 | 1011.4 |
| 20260504200105 | 73 | 317 | 2.0 | 5.0 | 0.00 | 0.01 | 0.01 | 38 | 1011.4 |
| 20260504195554 | 73 | 315 | 1.0 | 5.0 | 0.00 | 0.01 | 0.01 | 39 | 1011.5 |
| 20260504195051 | 73 | 311 | 1.0 | 6.0 | 0.00 | 0.01 | 0.01 | 41 | 1011.5 |
| 20260504194608 | 72 | 308 | 1.0 | 6.0 | 0.00 | 0.01 | 0.01 | 40 | 1011.6 |
| 20260504194053 | 72 | 271 | 2.0 | 6.0 | 0.00 | 0.01 | 0.01 | 39 | 1011.6 |
| 20260504193553 | 72 | 356 | 1.0 | 6.0 | 0.00 | 0.01 | 0.01 | 41 | 1011.6 |
| 20260504193058 | 72 | 247 | 2.0 | 6.0 | 0.00 | 0.01 | 0.01 | 38 | 1011.7 |
| 20260504192550 | 72 | 319 | 3.0 | 6.0 | 0.00 | 0.01 | 0.01 | 41 | 1011.7 |
| 20260504192051 | 71 | 318 | 2.0 | 4.0 | 0.00 | 0.01 | 0.01 | 38 | 1011.8 |
| 20260504191554 | 72 | 315 | 2.0 | 5.0 | 0.00 | 0.01 | 0.01 | 38 | 1011.8 |
| 20260504191052 | 72 | 319 | 1.0 | 5.0 | 0.00 | 0.01 | 0.01 | 41 | 1011.9 |
| 20260504190552 | 71 | 316 | 1.0 | 5.0 | 0.00 | 0.01 | 0.01 | 39 | 1011.9 |
| 20260504190117 | 71 | 248 | 1.0 | 5.0 | 0.00 | 0.01 | 0.01 | 37 | 1012.0 |
| 20260504185552 | 71 | 272 | 2.0 | 5.0 | 0.00 | 0.01 | 0.01 | 39 | 1012.0 |
| 20260504185051 | 71 | 303 | 1.0 | 7.0 | 0.00 | 0.01 | 0.01 | 39 | 1012.1 |
| 20260504184559 | 71 | 315 | 3.0 | 7.0 | 0.00 | 0.01 | 0.01 | 38 | 1012.2 |
| 20260504184056 | 71 | 310 | 1.0 | 8.0 | 0.00 | 0.01 | 0.01 | 37 | 1012.2 |
| 20260504183550 | 71 | 316 | 4.0 | 8.0 | 0.00 | 0.01 | 0.01 | 37 | 1012.3 |
| 20260504183056 | 71 | 318 | 2.0 | 7.0 | 0.00 | 0.01 | 0.01 | 37 | 1012.3 |
| 20260504182552 | 71 | 321 | 2.0 | 5.0 | 0.00 | 0.01 | 0.01 | 38 | 1012.3 |
| 20260504182053 | 70 | 311 | 1.0 | 7.0 | 0.00 | 0.01 | 0.01 | 40 | 1012.3 |
| 20260504181558 | 70 | 311 | 2.0 | 7.0 | 0.00 | 0.01 | 0.01 | 39 | 1012.3 |
| 20260504181051 | 70 | 317 | 1.0 | 4.0 | 0.00 | 0.01 | 0.01 | 39 | 1012.4 |
| 20260504180554 | 70 | 230 | 1.0 | 4.0 | 0.00 | 0.01 | 0.01 | 38 | 1012.4 |
| 20260504180144 | 70 | 257 | 1.0 | 8.0 | 0.00 | 0.01 | 0.01 | 39 | 1012.5 |
| 20260504175553 | 69 | 0 | 1.0 | 9.0 | 0.00 | 0.01 | 0.01 | 37 | 1012.6 |
| 20260504175059 | 70 | 315 | 4.0 | 9.0 | 0.00 | 0.01 | 0.01 | 39 | 1012.7 |
| 20260504174556 | 70 | 313 | 3.0 | 8.0 | 0.00 | 0.01 | 0.01 | 39 | 1012.7 |
| 20260504174054 | 70 | 341 | 1.0 | 5.0 | 0.00 | 0.01 | 0.01 | 39 | 1012.8 |
| 20260504173550 | 70 | 295 | 1.0 | 7.0 | 0.00 | 0.01 | 0.01 | 38 | 1013.0 |
| 20260504173113 | 70 | 315 | 1.0 | 7.0 | 0.00 | 0.01 | 0.01 | 38 | 1013.0 |
| 20260504172554 | 69 | 311 | 3.0 | 7.0 | 0.00 | 0.01 | 0.01 | 39 | 1013.1 |
| 20260504172053 | 69 | 119 | 2.0 | 5.0 | 0.00 | 0.01 | 0.01 | 38 | 1013.2 |
| 20260504171558 | 69 | 314 | 1.0 | 5.0 | 0.00 | 0.01 | 0.01 | 38 | 1013.3 |
| 20260504171054 | 69 | 55 | 1.0 | 5.0 | 0.00 | 0.01 | 0.01 | 39 | 1013.2 |
| 20260504170551 | 69 | 312 | 1.0 | 4.0 | 0.00 | 0.01 | 0.01 | 40 | 1013.3 |
| 20260504151055 | 67 | 308 | 1.0 | 5.0 | 0.00 | 0.01 | 0.01 | 47 | 1014.2 |
| 20260504150555 | 67 | 316 | 2.0 | 5.0 | 0.00 | 0.01 | 0.01 | 47 | 1014.2 |
| 20260504141055 | 64 | 307 | 2.0 | 5.0 | 0.00 | 0.01 | 0.01 | 59 | 1014.6 |
| 20260504140556 | 64 | 316 | 1.0 | 5.0 | 0.00 | 0.01 | 0.01 | 59 | 1014.5 |
| 20260504140128 | 64 | 298 | 1.0 | 5.0 | 0.00 | 0.01 | 0.01 | 61 | 1014.5 |
| 20260504130555 | 58 | 336 | 1.0 | 3.0 | 0.00 | 0.01 | 0.01 | 78 | 1015.2 |
| 20260504120112 | 53 | 0 | 0.0 | 2.0 | 0.00 | 0.01 | 0.01 | 87 | 1015.6 |
| 20260504110557 | 51 | 158 | 0.0 | 2.0 | 0.00 | 0.01 | 0.01 | 89 | 1015.8 |
| 20260504100553 | 50 | 0 | 0.0 | 0.0 | 0.00 | 0.01 | 0.01 | 89 | 1015.9 |
| 20260504081555 | 48 | 0 | 0.0 | 1.0 | 0.00 | 0.00 | 0.00 | 83 | 1016.0 |
| 20260504081054 | 48 | 0 | 0.0 | 1.0 | 0.00 | 0.00 | 0.00 | 83 | 1016.1 |
| 20260504080554 | 48 | 154 | 0.0 | 1.0 | 0.00 | 0.00 | 0.00 | 83 | 1016.0 |
| 20260504050554 | 46 | 0 | 0.0 | 0.0 | 0.00 | 0.00 | 0.00 | 71 | 1016.2 |
| 20260504050136 | 46 | 0 | 0.0 | 0.0 | 0.00 | 0.00 | 0.00 | 71 | 1016.2 |
| 20260504045553 | 46 | 0 | 0.0 | 0.0 | 0.00 | 0.00 | 0.00 | 70 | 1016.2 |
| 20260504045053 | 46 | 0 | 0.0 | 0.0 | 0.00 | 0.00 | 0.00 | 70 | 1016.2 |
| 20260504044558 | 46 | 0 | 0.0 | 0.0 | 0.00 | 0.00 | 0.00 | 69 | 1016.2 |
| 20260504044053 | 46 | 0 | 0.0 | 0.0 | 0.00 | 0.00 | 0.00 | 68 | 1016.0 |
| 20260504043553 | 46 | 0 | 0.0 | 0.0 | 0.00 | 0.00 | 0.00 | 68 | 1016.1 |
| 20260504043100 | 46 | 0 | 0.0 | 0.0 | 0.00 | 0.00 | 0.00 | 68 | 1016.0 |
| 20260504042554 | 46 | 0 | 0.0 | 0.0 | 0.00 | 0.00 | 0.00 | 67 | 1016.0 |
| 20260504042053 | 46 | 0 | 0.0 | 0.0 | 0.00 | 0.00 | 0.00 | 67 | 1016.0 |
| 20260504041552 | 46 | 0 | 0.0 | 0.0 | 0.00 | 0.00 | 0.00 | 68 | 1015.9 |
| 20260504041053 | 46 | 0 | 0.0 | 0.0 | 0.00 | 0.00 | 0.00 | 67 | 1015.9 |
| 20260504040553 | 46 | 0 | 0.0 | 0.0 | 0.00 | 0.00 | 0.00 | 68 | 1015.7 |
| 20260504040105 | 46 | 0 | 0.0 | 0.0 | 0.00 | 0.00 | 0.00 | 68 | 1015.6 |
| 20260504035551 | 47 | 0 | 0.0 | 0.0 | 0.00 | 0.00 | 0.00 | 67 | 1015.8 |
| 20260504035056 | 47 | 0 | 0.0 | 0.0 | 0.00 | 0.00 | 0.00 | 66 | 1015.7 |
| 20260504034553 | 47 | 0 | 0.0 | 0.0 | 0.00 | 0.00 | 0.00 | 66 | 1015.6 |
| 20260504034054 | 47 | 0 | 0.0 | 0.0 | 0.00 | 0.00 | 0.00 | 67 | 1015.6 |
| 20260504033553 | 47 | 0 | 0.0 | 0.0 | 0.00 | 0.00 | 0.00 | 67 | 1015.7 |
| 20260504033057 | 47 | 0 | 0.0 | 0.0 | 0.00 | 0.00 | 0.00 | 67 | 1015.6 |
| 20260504032554 | 47 | 0 | 0.0 | 0.0 | 0.00 | 0.00 | 0.00 | 66 | 1015.5 |
| 20260504032056 | 47 | 0 | 0.0 | 0.0 | 0.00 | 0.00 | 0.00 | 66 | 1015.4 |
| 20260504031623 | 47 | 0 | 0.0 | 0.0 | 0.00 | 0.00 | 0.00 | 66 | 1015.4 |
| 20260504031053 | 47 | 0 | 0.0 | 0.0 | 0.00 | 0.00 | 0.00 | 66 | 1015.4 |
| 20260504030553 | 47 | 0 | 0.0 | 0.0 | 0.00 | 0.00 | 0.00 | 67 | 1015.5 |
| 20260504030054 | 47 | 0 | 0.0 | 0.0 | 0.00 | 0.00 | 0.00 | 67 | 1015.4 |
| 20260504025550 | 47 | 0 | 0.0 | 0.0 | 0.00 | 0.00 | 0.00 | 66 | 1015.5 |
| 20260504025056 | 47 | 0 | 0.0 | 0.0 | 0.00 | 0.00 | 0.00 | 66 | 1015.5 |
| 20260504024553 | 47 | 0 | 0.0 | 0.0 | 0.00 | 0.00 | 0.00 | 66 | 1015.4 |
| 20260504024053 | 47 | 0 | 0.0 | 0.0 | 0.00 | 0.00 | 0.00 | 66 | 1015.5 |
| 20260504023553 | 48 | 0 | 0.0 | 0.0 | 0.00 | 0.00 | 0.00 | 66 | 1015.4 |
| 20260504023055 | 48 | 0 | 0.0 | 0.0 | 0.00 | 0.00 | 0.00 | 65 | 1015.4 |
| 20260504022552 | 48 | 0 | 0.0 | 0.0 | 0.00 | 0.00 | 0.00 | 64 | 1015.5 |
| 20260504022053 | 48 | 0 | 0.0 | 0.0 | 0.00 | 0.00 | 0.00 | 63 | 1015.5 |
| 20260504021605 | 48 | 0 | 0.0 | 0.0 | 0.00 | 0.00 | 0.00 | 63 | 1015.5 |
| 20260504021053 | 48 | 0 | 0.0 | 0.0 | 0.00 | 0.00 | 0.00 | 63 | 1015.4 |
| 20260504020553 | 49 | 0 | 0.0 | 0.0 | 0.00 | 0.00 | 0.00 | 63 | 1015.4 |
| 20260504020051 | 49 | 323 | 0.0 | 0.0 | 0.00 | 0.00 | 0.00 | 63 | 1015.4 |
| 20260504015554 | 49 | 323 | 0.0 | 0.0 | 0.00 | 0.00 | 0.00 | 61 | 1015.4 |
| 20260504015054 | 49 | 0 | 0.0 | 0.0 | 0.00 | 0.00 | 0.00 | 61 | 1015.4 |
| 20260504014552 | 49 | 0 | 0.0 | 0.0 | 0.00 | 0.00 | 0.00 | 61 | 1015.3 |
| 20260504014053 | 49 | 0 | 0.0 | 0.0 | 0.00 | 0.00 | 0.00 | 60 | 1015.2 |
| 20260504013553 | 50 | 0 | 0.0 | 0.0 | 0.00 | 0.00 | 0.00 | 59 | 1015.3 |
| 20260504013102 | 50 | 0 | 0.0 | 0.0 | 0.00 | 0.00 | 0.00 | 59 | 1015.3 |
| 20260504012556 | 50 | 323 | 0.0 | 0.0 | 0.00 | 0.00 | 0.00 | 58 | 1015.2 |
| 20260504012051 | 50 | 0 | 0.0 | 0.0 | 0.00 | 0.00 | 0.00 | 58 | 1015.2 |
| 20260504011557 | 50 | 0 | 0.0 | 0.0 | 0.00 | 0.00 | 0.00 | 57 | 1015.1 |